Regional Weather Roundup
Issued by NWS

Home | Current Version | Previous Version | Graphics & Text | Print | Product List | Glossary Off
Versions: 1 2 3 4 5 6 7 8 9 10 11 12 13 14 15 16 17 18 19 20 21 22 23 24 25 26 27 28 29 30 31 32 33 34 35 36 37 38 39 40 41 42 43 44 45 46 47 48 49 50

000
ASUS43 KMPX 211710
RWRMN
WEATHER ROUNDUP FOR MINNESOTA
NATIONAL WEATHER SERVICE TWIN CITIES/CHANHASSEN MN
1100 AM CST WED FEB 21 2018


NOTE: "FAIR" INDICATES FEW OR NO CLOUDS BELOW 12,000 FEET WITH NO
SIGNIFICANT WEATHER AND/OR OBSTRUCTIONS TO VISIBILITY. N/A MEANS
CURRENT SKY AND/OR WEATHER CONDITIONS ARE NOT AVAILABLE.

MNZ060>063-068>070-211800-
   Twin Cities Metro

CITY           SKY/WX    TMP DP  RH WIND       PRES   REMARKS
TWIN CITIES    FAIR      12   3  67 SW6       30.63R WCI   3
ST PAUL        FAIR      12   1  61 SW6       30.64R WCI   3
CRYSTAL        FAIR      12  -1  56 SW7       30.61R WCI   1
BLAINE         SUNNY     16   3  57 SW7       30.60R WCI   6
LAKEVILLE      FAIR      10   1  67 SW3       30.63R
EDEN PRAIRIE   FAIR      10   0  63 SW6       30.61R WCI   0
SOUTH ST PAUL  FAIR      14   2  59 SW6       30.63R WCI   5
LAKE ELMO      FAIR      12   3  67 SW6       30.62R WCI   3
$$
MNZ001>005-007-008-013>017-022>024-027-028-211800-
   Northwest Minnesota

CITY           SKY/WX    TMP DP  RH WIND       PRES   REMARKS
BEMIDJI        FAIR       9  -3  58 SW7       30.42R WCI  -2
HALLOCK        FAIR       3  -4  72 SW6       30.42R WCI  -8
ROSEAU         FAIR       3  -4  72 SW10      30.40R WCI -12
WARROAD        FAIR       7  -2  66 SW8       30.38R WCI  -6
THIEF RVR FALL FLURRIES   1  -8  66 SW13      30.44R WCI -17
CROOKSTON      FAIR       1  -6  71 SW15      30.48R WCI -18
FOSSTON        LGT SNOW   1  -9  60 S16       30.45R WCI -18
DETROIT LAKES  FAIR       5  -6  61 SW7       30.49R WCI  -7
MOORHEAD       FAIR       0  -9  65 S8        30.53R WCI -15
PARK RAPIDS    FAIR       6   0  76 CALM      30.45R
MAHNOMEN       FAIR       0  -7  71 S13       30.48R WCI -18
$$
MNZ006-009>011-018-025>026-211800-
   North Central Minnesota

CITY           SKY/WX    TMP DP  RH WIND       PRES   REMARKS
BAUDETTE       FAIR       7  -2  66 W5        30.37R WCI  -2
FLAG ISLAND    FAIR       9   0  66 W10       30.34R WCI  -6
INTL FALLS     FAIR       7  -1  70 SW8       30.40R WCI  -6
WASKISH        FAIR       5  -2  72 W14       30.43R WCI -12
BIG FORK       FAIR      10   0  61 SW10      30.41R WCI  -3
LONGVILLE      FAIR      10  -2  56 SW7       30.46R WCI   0
GRAND RAPIDS   FAIR      10  -2  58 W6        30.46R WCI   0
CRANE LAKE     FAIR       9   0  66 SW6       30.43R WCI  -1
ORR            FAIR      10  -2  56 SW8       30.39R WCI  -1
COOK             N/A     10   0  61 SW9       30.42R WCI  -2
WALKER         FAIR      12  -3  50 SW7       30.44R WCI   2
$$
MNZ012-019>021-037-211800-
   Northeast Minnesota

CITY           SKY/WX    TMP DP  RH WIND       PRES   REMARKS
DULUTH         FAIR      13   0  56 W12       30.45R WCI  -1
ELY            FAIR       9   0  66 W8        30.39R WCI  -4
HIBBING        FAIR       7  -3  64 W10       30.43R WCI  -8
EVELETH        FAIR     N/A N/A N/A W8        30.44R
DULUTH HARBOR  FAIR      12   1  62 S14       30.55R WCI  -3
TWO HARBORS    FAIR      19   3  49 W9        30.45R WCI   9
GRAND MARAIS     N/A     15   7  70 SW9       30.48R WCI   3
G MARAIS ARPRT FAIR      12   1  62 SW5       30.35R WCI   4
$$
MNZ029>031-032-039>041-046>048-054>057-064-211800-
   West Central Minnesota

CITY           SKY/WX    TMP DP  RH WIND       PRES   REMARKS
FERGUS FALLS   FAIR       1  -6  71 S3        30.53F
WHEATON        SUNNY      3  -6  66 S3        30.56R
MORRIS         SUNNY      9  -2  61 SW3       30.54R
ALEXANDRIA     FAIR       5  -4  66 SW6       30.51R WCI  -6
ELBOW LAKE     FAIR       3  -5  69 SE7       30.54R HAZE    WCI  -9
WADENA         FAIR       5  -6  61 SW9       30.50R WCI  -9
GLENWOOD       FAIR       9  -2  61 SW7       30.53R WCI  -3
APPLETON       SUNNY      9  -6  52 SW5       30.58R WCI   0
BENSON           N/A      9  -4  56 W6        30.58R WCI  -1
ORTONVILLE     SUNNY     10  -6  48 SW3       30.55R
MADISON          N/A     12   0  57 S7        30.58R WCI   2
WILLMAR        FAIR       7  -2  66 SW6       30.61R WCI  -3
$$
MNZ033>034-036-042>043-049>051-058-059-211800-
   Central Minnesota

CITY           SKY/WX    TMP DP  RH WIND       PRES   REMARKS
ST CLOUD       FAIR       8   0  69 S12       30.59R WCI  -7
SAUK CENTRE    FAIR       8  -2  63 W8        30.54R WCI  -5
PAYNESVILLE    FAIR      12   2  65 S3        30.58R
AITKIN         FAIR      10  -4  52 SW8       30.49R WCI  -1
PINE RIVER     FAIR       9  -2  61 SW7       30.50R WCI  -3
BRAINERD       FAIR      10  -4  53 SW10      30.50R WCI  -4
STAPLES        FAIR       9  -6  52 SW6       30.50R WCI  -1
LONG PRAIRIE   FAIR       9  -2  61 S7        30.53R WCI  -3
LITTLE FALLS   FAIR      10  -6  48 S7        30.56R WCI   0
LITCHFIELD     FAIR       9   0  66 SW6       30.59R WCI  -1
BUFFALO        FAIR      11   0  60 SW6       30.62R WCI   1
MAPLE LAKE     FAIR      12   2  63 SW8       30.61R WCI   1
HUTCHINSON     FAIR      11   2  66 W9        30.61S WCI  -2
$$
MNZ037-044-045-052-053-211800-
   East Central Minnesota

CITY           SKY/WX    TMP DP  RH WIND       PRES   REMARKS
PRINCETON      FAIR      16   1  53 S7        30.58R WCI   6
MORA           FAIR      12   1  62 SW7       30.59R WCI   2
CAMBRIDGE      FAIR      12   0  57 SW7       30.60R WCI   2
RUSH CITY      FAIR      11  -1  59 S3        30.59R
MOOSE LAKE     FAIR      14   0  52 S8        30.51R WCI   3
HINCKLEY       FAIR      10   1  67 S9        30.58R WCI  -2
CLOQUET        FAIR      12   0  57 W8        30.47R WCI   1
MCGREGOR       FAIR      14   0  52 SW5       30.49R WCI   6
$$
MNZ071>073-080-081-089-090-097-098-211800-
   Southwest Minnesota

CITY           SKY/WX    TMP DP  RH WIND       PRES   REMARKS
MONTEVIDEO     SUNNY     14  -2  48 W5        30.59R WCI   6
GRANITE FALLS  SUNNY      9  -1  65 SE8       30.64R WCI  -3
CANBY          SUNNY     12  -2  54 SW8       30.58R WCI   0
MARSHALL       SUNNY     17   0  47 S8        30.60R WCI   7
REDWOOD FALLS  SUNNY      7  -2  66 SW6       30.62R WCI  -3
OLIVIA         SUNNY     10   1  67 SW9       30.60S WCI  -2
PIPESTONE      SUNNY      3  -2  78 S8        30.56R WCI -10
WORTHINGTON    SUNNY     13   1  59 SW8       30.59S WCI   2
JACKSON        SUNNY     10   0  61 SW7       30.61R WCI   0
TRACY          SUNNY     10   1  67 SW7       30.59S WCI  -1
SLAYTON        SUNNY      9   1  70 SW8       30.58S WCI  -4
$$
MNZ065>067-074>077-082>085-091>093-211800-
   South Central Minnesota

CITY           SKY/WX    TMP DP  RH WIND       PRES   REMARKS
MANKATO        FAIR      14   3  61 SW6       30.65R WCI   5
NEW ULM        SUNNY      9  -2  61 SW6       30.63R WCI  -1
ST JAMES       SUNNY     10   1  67 SW5       30.64R WCI   2
FAIRMONT       CLOUDY    14   3  61 SW7       30.65R WCI   4
GLENCOE        FAIR      11   2  67 SW5       30.61R WCI   3
FARIBAULT      FAIR      10   1  67 S6        30.63R WCI   1
OWATONNA       FAIR      10   3  72 SW6       30.62R WCI   1
WASECA         FAIR      12   5  73 SW5       30.65R WCI   4
ALBERT LEA     FAIR      12   3  67 CALM      30.61S
$$
MNZ078>079-086>088-094>096-211800-
   Southeast Minnesota

CITY           SKY/WX    TMP DP  RH WIND       PRES   REMARKS
ROCHESTER      FAIR      14   7  73 W5        30.60R WCI   6
RED WING       FAIR      12   1  62 CALM      30.64R
STANTON        FAIR      12   3  69 S6        30.63R WCI   2
DODGE CENTER   FAIR      10   5  79 SW5       30.59S WCI   2
WINONA         FAIR      18  10  73 CALM      30.65R
AUSTIN         FAIR      14   7  73 CALM      30.61S
PRESTON        FAIR      14   6  70 CALM      30.60S
$$
ABBREVIATIONS USED IN REMARKS
   TC - TEMPERATURES IN CELSIUS
  WCI - WIND CHILL INDEX
   HX - HEAT INDEX
  VSB - VISIBILITY
$$




USA.gov is the U.S. government's official web portal to all federal, state and local government web resources and services.